YAOGAN-31 F (47536 NORAD) Tracking and Keplerian Element Data

This shows tracking and keplerian element data for the satellite.

Feedback or suggestion? Click here.




ElementValue
Catalog47536
NameYAOGAN-31 F
Epoch Orbit981
Epoch Day102.06167044
Epoch Year2021
RAAN321.231
Inclination63.4097
Eccentricity0.0010339
Argument of Perigee303.1488
Mean Anonmoly56.8542
Mean Motion13.45209694
Decay Rate-3.1E-07
L11 47536U 21007E 21102.06167044 -.00000031 00000-0 10000-3 0 9998
L22 47536 63.4097 321.2310 0010339 303.1488 56.8542 13.45209694 9812

Live tracking and technical data element details for YAOGAN-31 F (NORAD 47536). YAOGAN-31 F can be tracked NOW for your location showing map with azimuth and elevation plus other details from your city location.

Track the satellite on the map from your city or location and see movement details for azimuth, elevation, latitude, longitude, range, height, and movement on the map or in text.







IsCatalogInMostPopularTable: catalog: 47536, numindb: 15
Update: records affected: 1



GetName: 47536 YAOGAN-31 F

Hit Count: updated at: Tue, 13 Apr 2021 05:18:02 GMT